Data supplied by UK-AIR on 5/4/2008
All Data GMT hour ending 
Status: R =Ratified P=Provisional,P*=As supplied
,,Walsall Alumwell,,,,,,,,,,,,,,,,,,,,,,,
Date,time,"Nitric oxide",status,unit,"Nitrogen dioxide",status,unit,"Nitrogen oxides as nitrogen dioxide",status,unit
 
01-01-1988,01:00,4,R,ugm-3,8,R,ugm-3,13,R,ugm-3
01-01-1988,02:00,4,R,ugm-3,6,R,ugm-3,11,R,ugm-3
01-01-1988,03:00,3,R,ugm-3,10,R,ugm-3,13,R,ugm-3
01-01-1988,04:00,3,R,ugm-3,11,R,ugm-3,15,R,ugm-3
01-01-1988,05:00,4,R,ugm-3,8,R,ugm-3,13,R,ugm-3
01-01-1988,06:00,5,R,ugm-3,13,R,ugm-3,21,R,ugm-3
01-01-1988,07:00,6,R,ugm-3,17,R,ugm-3,27,R,ugm-3
01-01-1988,08:00,11,R,ugm-3,23,R,ugm-3,40,R,ugm-3
01-01-1988,09:00,14,R,ugm-3,29,R,ugm-3,50,R,ugm-3
01-01-1988,10:00,16,R,ugm-3,29,R,ugm-3,53,R,ugm-3
01-01-1988,11:00,23,R,ugm-3,31,R,ugm-3,65,R,ugm-3
01-01-1988,12:00,23,R,ugm-3,25,R,ugm-3,59,R,ugm-3
01-01-1988,13:00,31,R,ugm-3,27,R,ugm-3,74,R,ugm-3
01-01-1988,14:00,38,R,ugm-3,34,R,ugm-3,92,R,ugm-3
01-01-1988,15:00,34,R,ugm-3,34,R,ugm-3,86,R,ugm-3
01-01-1988,16:00,31,R,ugm-3,32,R,ugm-3,80,R,ugm-3
01-01-1988,17:00,40,R,ugm-3,42,R,ugm-3,103,R,ugm-3
01-01-1988,18:00,30,R,ugm-3,40,R,ugm-3,86,R,ugm-3
01-01-1988,19:00,21,R,ugm-3,40,R,ugm-3,73,R,ugm-3
01-01-1988,20:00,14,R,ugm-3,31,R,ugm-3,52,R,ugm-3
01-01-1988,21:00,14,R,ugm-3,21,R,ugm-3,42,R,ugm-3
01-01-1988,22:00,10,R,ugm-3,17,R,ugm-3,32,R,ugm-3
01-01-1988,23:00,9,R,ugm-3,8,R,ugm-3,21,R,ugm-3
01-01-1988,24:00,10,R,ugm-3,13,R,ugm-3,29,R,ugm-3
02-01-1988,01:00,5,R,ugm-3,15,R,ugm-3,23,R,ugm-3
02-01-1988,02:00,8,R,ugm-3,15,R,ugm-3,27,R,ugm-3
02-01-1988,03:00,8,R,ugm-3,11,R,ugm-3,23,R,ugm-3
02-01-1988,04:00,8,R,ugm-3,19,R,ugm-3,31,R,ugm-3
02-01-1988,05:00,6,R,ugm-3,23,R,ugm-3,32,R,ugm-3
02-01-1988,06:00,6,R,ugm-3,19,R,ugm-3,29,R,ugm-3
02-01-1988,07:00,8,R,ugm-3,19,R,ugm-3,31,R,ugm-3
02-01-1988,08:00,6,R,ugm-3,29,R,ugm-3,38,R,ugm-3
02-01-1988,09:00,13,R,ugm-3,32,R,ugm-3,52,R,ugm-3
02-01-1988,10:00,19,R,ugm-3,31,R,ugm-3,59,R,ugm-3
02-01-1988,11:00,23,R,ugm-3,32,R,ugm-3,67,R,ugm-3
02-01-1988,12:00,24,R,ugm-3,27,R,ugm-3,63,R,ugm-3
02-01-1988,13:00,35,R,ugm-3,29,R,ugm-3,82,R,ugm-3
02-01-1988,14:00,43,R,ugm-3,34,R,ugm-3,99,R,ugm-3
02-01-1988,15:00,38,R,ugm-3,36,R,ugm-3,94,R,ugm-3
02-01-1988,16:00,35,R,ugm-3,36,R,ugm-3,90,R,ugm-3
02-01-1988,17:00,46,R,ugm-3,40,R,ugm-3,111,R,ugm-3
02-01-1988,18:00,36,R,ugm-3,34,R,ugm-3,90,R,ugm-3
02-01-1988,19:00,25,R,ugm-3,44,R,ugm-3,82,R,ugm-3
02-01-1988,20:00,13,R,ugm-3,36,R,ugm-3,55,R,ugm-3
02-01-1988,21:00,11,R,ugm-3,32,R,ugm-3,50,R,ugm-3
02-01-1988,22:00,6,R,ugm-3,23,R,ugm-3,32,R,ugm-3
02-01-1988,23:00,8,R,ugm-3,19,R,ugm-3,31,R,ugm-3
02-01-1988,24:00,,,,,,,,,
03-01-1988,01:00,8,R,ugm-3,10,R,ugm-3,21,R,ugm-3
03-01-1988,02:00,5,R,ugm-3,8,R,ugm-3,15,R,ugm-3
03-01-1988,03:00,4,R,ugm-3,8,R,ugm-3,13,R,ugm-3
03-01-1988,04:00,4,R,ugm-3,6,R,ugm-3,11,R,ugm-3
03-01-1988,05:00,5,R,ugm-3,4,R,ugm-3,11,R,ugm-3
03-01-1988,06:00,4,R,ugm-3,4,R,ugm-3,10,R,ugm-3
03-01-1988,07:00,6,R,ugm-3,8,R,ugm-3,17,R,ugm-3
03-01-1988,08:00,8,R,ugm-3,15,R,ugm-3,27,R,ugm-3
03-01-1988,09:00,11,R,ugm-3,13,R,ugm-3,31,R,ugm-3
03-01-1988,10:00,16,R,ugm-3,19,R,ugm-3,44,R,ugm-3
03-01-1988,11:00,24,R,ugm-3,21,R,ugm-3,57,R,ugm-3
03-01-1988,12:00,26,R,ugm-3,21,R,ugm-3,61,R,ugm-3
03-01-1988,13:00,29,R,ugm-3,21,R,ugm-3,65,R,ugm-3
03-01-1988,14:00,26,R,ugm-3,21,R,ugm-3,61,R,ugm-3
03-01-1988,15:00,29,R,ugm-3,25,R,ugm-3,69,R,ugm-3
03-01-1988,16:00,30,R,ugm-3,27,R,ugm-3,73,R,ugm-3
03-01-1988,17:00,21,R,ugm-3,25,R,ugm-3,57,R,ugm-3
03-01-1988,18:00,29,R,ugm-3,29,R,ugm-3,73,R,ugm-3
03-01-1988,19:00,30,R,ugm-3,29,R,ugm-3,74,R,ugm-3
03-01-1988,20:00,34,R,ugm-3,32,R,ugm-3,84,R,ugm-3
03-01-1988,21:00,31,R,ugm-3,29,R,ugm-3,76,R,ugm-3
03-01-1988,22:00,38,R,ugm-3,40,R,ugm-3,97,R,ugm-3
03-01-1988,23:00,29,R,ugm-3,36,R,ugm-3,80,R,ugm-3
03-01-1988,24:00,18,R,ugm-3,27,R,ugm-3,53,R,ugm-3
04-01-1988,01:00,9,R,ugm-3,23,R,ugm-3,36,R,ugm-3
04-01-1988,02:00,11,R,ugm-3,25,R,ugm-3,42,R,ugm-3
04-01-1988,03:00,6,R,ugm-3,17,R,ugm-3,27,R,ugm-3
04-01-1988,04:00,5,R,ugm-3,15,R,ugm-3,23,R,ugm-3
04-01-1988,05:00,10,R,ugm-3,23,R,ugm-3,38,R,ugm-3
04-01-1988,06:00,16,R,ugm-3,29,R,ugm-3,53,R,ugm-3
04-01-1988,07:00,35,R,ugm-3,31,R,ugm-3,84,R,ugm-3
04-01-1988,08:00,56,R,ugm-3,36,R,ugm-3,122,R,ugm-3
04-01-1988,09:00,68,R,ugm-3,44,R,ugm-3,147,R,ugm-3
04-01-1988,10:00,46,R,ugm-3,34,R,ugm-3,105,R,ugm-3
04-01-1988,11:00,54,R,ugm-3,48,R,ugm-3,130,R,ugm-3
04-01-1988,12:00,70,R,ugm-3,48,R,ugm-3,155,R,ugm-3
04-01-1988,13:00,64,R,ugm-3,29,R,ugm-3,126,R,ugm-3
04-01-1988,14:00,60,R,ugm-3,27,R,ugm-3,118,R,ugm-3
04-01-1988,15:00,76,R,ugm-3,50,R,ugm-3,166,R,ugm-3
04-01-1988,16:00,74,R,ugm-3,36,R,ugm-3,149,R,ugm-3
04-01-1988,17:00,51,R,ugm-3,36,R,ugm-3,115,R,ugm-3
04-01-1988,18:00,45,R,ugm-3,27,R,ugm-3,96,R,ugm-3
04-01-1988,19:00,43,R,ugm-3,31,R,ugm-3,96,R,ugm-3
04-01-1988,20:00,31,R,ugm-3,40,R,ugm-3,88,R,ugm-3
04-01-1988,21:00,48,R,ugm-3,40,R,ugm-3,113,R,ugm-3
04-01-1988,22:00,33,R,ugm-3,36,R,ugm-3,86,R,ugm-3
04-01-1988,23:00,23,R,ugm-3,40,R,ugm-3,74,R,ugm-3
04-01-1988,24:00,46,R,ugm-3,36,R,ugm-3,107,R,ugm-3
05-01-1988,01:00,60,R,ugm-3,57,R,ugm-3,149,R,ugm-3
05-01-1988,02:00,39,R,ugm-3,61,R,ugm-3,120,R,ugm-3
05-01-1988,03:00,15,R,ugm-3,50,R,ugm-3,73,R,ugm-3
05-01-1988,04:00,20,R,ugm-3,44,R,ugm-3,74,R,ugm-3
05-01-1988,05:00,15,R,ugm-3,44,R,ugm-3,67,R,ugm-3
05-01-1988,06:00,30,R,ugm-3,48,R,ugm-3,94,R,ugm-3
05-01-1988,07:00,40,R,ugm-3,57,R,ugm-3,118,R,ugm-3
05-01-1988,08:00,58,R,ugm-3,59,R,ugm-3,147,R,ugm-3
05-01-1988,09:00,75,R,ugm-3,61,R,ugm-3,176,R,ugm-3
05-01-1988,10:00,113,R,ugm-3,67,R,ugm-3,239,R,ugm-3
05-01-1988,11:00,100,R,ugm-3,71,R,ugm-3,223,R,ugm-3
05-01-1988,12:00,100,R,ugm-3,73,R,ugm-3,225,R,ugm-3
05-01-1988,13:00,45,R,ugm-3,73,R,ugm-3,141,R,ugm-3
05-01-1988,14:00,25,R,ugm-3,65,R,ugm-3,103,R,ugm-3
05-01-1988,15:00,35,R,ugm-3,69,R,ugm-3,122,R,ugm-3
05-01-1988,16:00,58,R,ugm-3,71,R,ugm-3,159,R,ugm-3
05-01-1988,17:00,74,R,ugm-3,71,R,ugm-3,183,R,ugm-3
05-01-1988,18:00,59,R,ugm-3,69,R,ugm-3,159,R,ugm-3
05-01-1988,19:00,61,R,ugm-3,65,R,ugm-3,159,R,ugm-3
05-01-1988,20:00,93,R,ugm-3,63,R,ugm-3,204,R,ugm-3
05-01-1988,21:00,65,R,ugm-3,65,R,ugm-3,164,R,ugm-3
05-01-1988,22:00,66,R,ugm-3,63,R,ugm-3,164,R,ugm-3
05-01-1988,23:00,34,R,ugm-3,61,R,ugm-3,113,R,ugm-3
05-01-1988,24:00,16,R,ugm-3,57,R,ugm-3,82,R,ugm-3
06-01-1988,01:00,6,R,ugm-3,40,R,ugm-3,50,R,ugm-3
06-01-1988,02:00,4,R,ugm-3,25,R,ugm-3,31,R,ugm-3
06-01-1988,03:00,8,R,ugm-3,21,R,ugm-3,32,R,ugm-3
06-01-1988,04:00,5,R,ugm-3,25,R,ugm-3,32,R,ugm-3
06-01-1988,05:00,4,R,ugm-3,36,R,ugm-3,42,R,ugm-3
06-01-1988,06:00,9,R,ugm-3,31,R,ugm-3,44,R,ugm-3
06-01-1988,07:00,16,R,ugm-3,31,R,ugm-3,55,R,ugm-3
06-01-1988,08:00,23,R,ugm-3,44,R,ugm-3,78,R,ugm-3
06-01-1988,09:00,60,R,ugm-3,44,R,ugm-3,136,R,ugm-3
06-01-1988,10:00,90,R,ugm-3,52,R,ugm-3,189,R,ugm-3
06-01-1988,11:00,81,R,ugm-3,50,R,ugm-3,174,R,ugm-3
06-01-1988,12:00,83,R,ugm-3,48,R,ugm-3,174,R,ugm-3
06-01-1988,13:00,60,R,ugm-3,42,R,ugm-3,134,R,ugm-3
06-01-1988,14:00,56,R,ugm-3,38,R,ugm-3,124,R,ugm-3
06-01-1988,15:00,60,R,ugm-3,40,R,ugm-3,132,R,ugm-3
06-01-1988,16:00,66,R,ugm-3,46,R,ugm-3,147,R,ugm-3
06-01-1988,17:00,69,R,ugm-3,46,R,ugm-3,151,R,ugm-3
06-01-1988,18:00,76,R,ugm-3,48,R,ugm-3,164,R,ugm-3
06-01-1988,19:00,60,R,ugm-3,44,R,ugm-3,136,R,ugm-3
06-01-1988,20:00,35,R,ugm-3,34,R,ugm-3,88,R,ugm-3
06-01-1988,21:00,29,R,ugm-3,32,R,ugm-3,76,R,ugm-3
06-01-1988,22:00,24,R,ugm-3,32,R,ugm-3,69,R,ugm-3
06-01-1988,23:00,19,R,ugm-3,29,R,ugm-3,57,R,ugm-3
06-01-1988,24:00,16,R,ugm-3,27,R,ugm-3,52,R,ugm-3
07-01-1988,01:00,11,R,ugm-3,15,R,ugm-3,32,R,ugm-3
07-01-1988,02:00,11,R,ugm-3,15,R,ugm-3,32,R,ugm-3
07-01-1988,03:00,11,R,ugm-3,10,R,ugm-3,27,R,ugm-3
07-01-1988,04:00,11,R,ugm-3,15,R,ugm-3,32,R,ugm-3
07-01-1988,05:00,14,R,ugm-3,19,R,ugm-3,40,R,ugm-3
07-01-1988,06:00,24,R,ugm-3,27,R,ugm-3,63,R,ugm-3
07-01-1988,07:00,48,R,ugm-3,38,R,ugm-3,111,R,ugm-3
07-01-1988,08:00,70,R,ugm-3,48,R,ugm-3,155,R,ugm-3
07-01-1988,09:00,81,R,ugm-3,57,R,ugm-3,181,R,ugm-3
07-01-1988,10:00,99,R,ugm-3,55,R,ugm-3,206,R,ugm-3
07-01-1988,11:00,79,R,ugm-3,50,R,ugm-3,170,R,ugm-3
07-01-1988,12:00,71,R,ugm-3,46,R,ugm-3,155,R,ugm-3
07-01-1988,13:00,85,R,ugm-3,48,R,ugm-3,178,R,ugm-3
07-01-1988,14:00,68,R,ugm-3,44,R,ugm-3,147,R,ugm-3
07-01-1988,15:00,101,R,ugm-3,52,R,ugm-3,206,R,ugm-3
07-01-1988,16:00,156,R,ugm-3,57,R,ugm-3,296,R,ugm-3
07-01-1988,17:00,179,R,ugm-3,61,R,ugm-3,334,R,ugm-3
07-01-1988,18:00,213,R,ugm-3,55,R,ugm-3,380,R,ugm-3
07-01-1988,19:00,240,R,ugm-3,50,R,ugm-3,416,R,ugm-3
07-01-1988,20:00,243,R,ugm-3,48,R,ugm-3,418,R,ugm-3
07-01-1988,21:00,249,R,ugm-3,50,R,ugm-3,430,R,ugm-3
07-01-1988,22:00,270,R,ugm-3,48,R,ugm-3,460,R,ugm-3
07-01-1988,23:00,96,R,ugm-3,65,R,ugm-3,212,R,ugm-3
07-01-1988,24:00,76,R,ugm-3,65,R,ugm-3,181,R,ugm-3
08-01-1988,01:00,118,R,ugm-3,69,R,ugm-3,248,R,ugm-3
08-01-1988,02:00,93,R,ugm-3,63,R,ugm-3,204,R,ugm-3
08-01-1988,03:00,30,R,ugm-3,61,R,ugm-3,107,R,ugm-3
08-01-1988,04:00,14,R,ugm-3,61,R,ugm-3,82,R,ugm-3
08-01-1988,05:00,8,R,ugm-3,46,R,ugm-3,57,R,ugm-3
08-01-1988,06:00,24,R,ugm-3,65,R,ugm-3,101,R,ugm-3
08-01-1988,07:00,39,R,ugm-3,71,R,ugm-3,130,R,ugm-3
08-01-1988,08:00,68,R,ugm-3,67,R,ugm-3,170,R,ugm-3
08-01-1988,09:00,114,R,ugm-3,61,R,ugm-3,235,R,ugm-3
08-01-1988,10:00,100,R,ugm-3,65,R,ugm-3,218,R,ugm-3
08-01-1988,11:00,75,R,ugm-3,63,R,ugm-3,178,R,ugm-3
08-01-1988,12:00,60,R,ugm-3,61,R,ugm-3,153,R,ugm-3
08-01-1988,13:00,53,R,ugm-3,59,R,ugm-3,139,R,ugm-3
08-01-1988,14:00,40,R,ugm-3,57,R,ugm-3,118,R,ugm-3
08-01-1988,15:00,50,R,ugm-3,57,R,ugm-3,134,R,ugm-3
08-01-1988,16:00,54,R,ugm-3,55,R,ugm-3,138,R,ugm-3
08-01-1988,17:00,60,R,ugm-3,55,R,ugm-3,147,R,ugm-3
08-01-1988,18:00,81,R,ugm-3,50,R,ugm-3,174,R,ugm-3
08-01-1988,19:00,86,R,ugm-3,48,R,ugm-3,180,R,ugm-3
08-01-1988,20:00,69,R,ugm-3,50,R,ugm-3,155,R,ugm-3
08-01-1988,21:00,150,R,ugm-3,38,R,ugm-3,267,R,ugm-3
08-01-1988,22:00,188,R,ugm-3,38,R,ugm-3,325,R,ugm-3
08-01-1988,23:00,111,R,ugm-3,42,R,ugm-3,212,R,ugm-3
08-01-1988,24:00,100,R,ugm-3,38,R,ugm-3,191,R,ugm-3
09-01-1988,01:00,43,R,ugm-3,32,R,ugm-3,97,R,ugm-3
09-01-1988,02:00,56,R,ugm-3,31,R,ugm-3,117,R,ugm-3
09-01-1988,03:00,45,R,ugm-3,31,R,ugm-3,99,R,ugm-3
09-01-1988,04:00,19,R,ugm-3,23,R,ugm-3,52,R,ugm-3
09-01-1988,05:00,51,R,ugm-3,36,R,ugm-3,115,R,ugm-3
09-01-1988,06:00,19,R,ugm-3,29,R,ugm-3,57,R,ugm-3
09-01-1988,07:00,18,R,ugm-3,31,R,ugm-3,57,R,ugm-3
09-01-1988,08:00,21,R,ugm-3,36,R,ugm-3,69,R,ugm-3
09-01-1988,09:00,25,R,ugm-3,44,R,ugm-3,82,R,ugm-3
09-01-1988,10:00,25,R,ugm-3,40,R,ugm-3,78,R,ugm-3
09-01-1988,11:00,38,R,ugm-3,42,R,ugm-3,99,R,ugm-3
09-01-1988,12:00,40,R,ugm-3,44,R,ugm-3,105,R,ugm-3
09-01-1988,13:00,26,R,ugm-3,36,R,ugm-3,76,R,ugm-3
09-01-1988,14:00,24,R,ugm-3,36,R,ugm-3,73,R,ugm-3
09-01-1988,15:00,26,R,ugm-3,38,R,ugm-3,78,R,ugm-3
09-01-1988,16:00,29,R,ugm-3,40,R,ugm-3,84,R,ugm-3
09-01-1988,17:00,21,R,ugm-3,29,R,ugm-3,61,R,ugm-3
09-01-1988,18:00,24,R,ugm-3,27,R,ugm-3,63,R,ugm-3
09-01-1988,19:00,25,R,ugm-3,31,R,ugm-3,69,R,ugm-3
09-01-1988,20:00,19,R,ugm-3,27,R,ugm-3,55,R,ugm-3
09-01-1988,21:00,18,R,ugm-3,31,R,ugm-3,57,R,ugm-3
09-01-1988,22:00,13,R,ugm-3,23,R,ugm-3,42,R,ugm-3
09-01-1988,23:00,13,R,ugm-3,32,R,ugm-3,52,R,ugm-3
09-01-1988,24:00,11,R,ugm-3,34,R,ugm-3,52,R,ugm-3
10-01-1988,01:00,11,R,ugm-3,23,R,ugm-3,40,R,ugm-3
10-01-1988,02:00,8,R,ugm-3,19,R,ugm-3,31,R,ugm-3
10-01-1988,03:00,5,R,ugm-3,21,R,ugm-3,29,R,ugm-3
10-01-1988,04:00,5,R,ugm-3,13,R,ugm-3,21,R,ugm-3
10-01-1988,05:00,6,R,ugm-3,8,R,ugm-3,17,R,ugm-3
10-01-1988,06:00,5,R,ugm-3,15,R,ugm-3,23,R,ugm-3
10-01-1988,07:00,8,R,ugm-3,31,R,ugm-3,42,R,ugm-3
10-01-1988,08:00,15,R,ugm-3,42,R,ugm-3,65,R,ugm-3
10-01-1988,09:00,14,R,ugm-3,42,R,ugm-3,63,R,ugm-3
10-01-1988,10:00,44,R,ugm-3,50,R,ugm-3,117,R,ugm-3
10-01-1988,11:00,39,R,ugm-3,50,R,ugm-3,109,R,ugm-3
10-01-1988,12:00,61,R,ugm-3,53,R,ugm-3,147,R,ugm-3
10-01-1988,13:00,56,R,ugm-3,55,R,ugm-3,141,R,ugm-3
10-01-1988,14:00,48,R,ugm-3,52,R,ugm-3,124,R,ugm-3
10-01-1988,15:00,41,R,ugm-3,50,R,ugm-3,113,R,ugm-3
10-01-1988,16:00,34,R,ugm-3,59,R,ugm-3,111,R,ugm-3
10-01-1988,17:00,65,R,ugm-3,65,R,ugm-3,164,R,ugm-3
10-01-1988,18:00,39,R,ugm-3,59,R,ugm-3,118,R,ugm-3
10-01-1988,19:00,46,R,ugm-3,52,R,ugm-3,122,R,ugm-3
10-01-1988,20:00,49,R,ugm-3,48,R,ugm-3,122,R,ugm-3
10-01-1988,21:00,45,R,ugm-3,42,R,ugm-3,111,R,ugm-3
10-01-1988,22:00,38,R,ugm-3,40,R,ugm-3,97,R,ugm-3
10-01-1988,23:00,25,R,ugm-3,32,R,ugm-3,71,R,ugm-3
10-01-1988,24:00,21,R,ugm-3,32,R,ugm-3,65,R,ugm-3
11-01-1988,01:00,13,R,ugm-3,25,R,ugm-3,44,R,ugm-3
11-01-1988,02:00,15,R,ugm-3,31,R,ugm-3,53,R,ugm-3
11-01-1988,03:00,9,R,ugm-3,25,R,ugm-3,38,R,ugm-3
11-01-1988,04:00,14,R,ugm-3,29,R,ugm-3,50,R,ugm-3
11-01-1988,05:00,18,R,ugm-3,21,R,ugm-3,48,R,ugm-3
11-01-1988,06:00,63,R,ugm-3,44,R,ugm-3,139,R,ugm-3
11-01-1988,07:00,149,R,ugm-3,55,R,ugm-3,283,R,ugm-3
11-01-1988,08:00,233,R,ugm-3,48,R,ugm-3,403,R,ugm-3
11-01-1988,09:00,203,R,ugm-3,57,R,ugm-3,367,R,ugm-3
11-01-1988,10:00,165,R,ugm-3,55,R,ugm-3,308,R,ugm-3
11-01-1988,11:00,146,R,ugm-3,52,R,ugm-3,275,R,ugm-3
11-01-1988,12:00,110,R,ugm-3,52,R,ugm-3,220,R,ugm-3
11-01-1988,13:00,105,R,ugm-3,50,R,ugm-3,210,R,ugm-3
11-01-1988,14:00,90,R,ugm-3,48,R,ugm-3,185,R,ugm-3
11-01-1988,15:00,81,R,ugm-3,50,R,ugm-3,174,R,ugm-3
11-01-1988,16:00,135,R,ugm-3,57,R,ugm-3,264,R,ugm-3
11-01-1988,17:00,151,R,ugm-3,67,R,ugm-3,298,R,ugm-3
11-01-1988,18:00,149,R,ugm-3,63,R,ugm-3,290,R,ugm-3
11-01-1988,19:00,91,R,ugm-3,67,R,ugm-3,206,R,ugm-3
11-01-1988,20:00,61,R,ugm-3,65,R,ugm-3,159,R,ugm-3
11-01-1988,21:00,39,R,ugm-3,57,R,ugm-3,117,R,ugm-3
11-01-1988,22:00,29,R,ugm-3,53,R,ugm-3,97,R,ugm-3
11-01-1988,23:00,35,R,ugm-3,53,R,ugm-3,107,R,ugm-3
11-01-1988,24:00,30,R,ugm-3,48,R,ugm-3,94,R,ugm-3
12-01-1988,01:00,49,R,ugm-3,50,R,ugm-3,124,R,ugm-3
12-01-1988,02:00,39,R,ugm-3,46,R,ugm-3,105,R,ugm-3
12-01-1988,03:00,40,R,ugm-3,38,R,ugm-3,99,R,ugm-3
12-01-1988,04:00,30,R,ugm-3,34,R,ugm-3,80,R,ugm-3
12-01-1988,05:00,25,R,ugm-3,32,R,ugm-3,71,R,ugm-3
12-01-1988,06:00,24,R,ugm-3,36,R,ugm-3,73,R,ugm-3
12-01-1988,07:00,28,R,ugm-3,44,R,ugm-3,86,R,ugm-3
12-01-1988,08:00,35,R,ugm-3,53,R,ugm-3,107,R,ugm-3
12-01-1988,09:00,35,R,ugm-3,57,R,ugm-3,111,R,ugm-3
12-01-1988,10:00,34,R,ugm-3,57,R,ugm-3,109,R,ugm-3
12-01-1988,11:00,29,R,ugm-3,50,R,ugm-3,94,R,ugm-3
12-01-1988,12:00,25,R,ugm-3,46,R,ugm-3,84,R,ugm-3
12-01-1988,13:00,25,R,ugm-3,42,R,ugm-3,80,R,ugm-3
12-01-1988,14:00,23,R,ugm-3,40,R,ugm-3,74,R,ugm-3
12-01-1988,15:00,34,R,ugm-3,40,R,ugm-3,92,R,ugm-3
12-01-1988,16:00,19,R,ugm-3,42,R,ugm-3,71,R,ugm-3
12-01-1988,17:00,18,R,ugm-3,48,R,ugm-3,74,R,ugm-3
12-01-1988,18:00,14,R,ugm-3,46,R,ugm-3,67,R,ugm-3
12-01-1988,19:00,11,R,ugm-3,48,R,ugm-3,65,R,ugm-3
12-01-1988,20:00,11,R,ugm-3,48,R,ugm-3,65,R,ugm-3
12-01-1988,21:00,10,R,ugm-3,42,R,ugm-3,57,R,ugm-3
12-01-1988,22:00,8,R,ugm-3,32,R,ugm-3,44,R,ugm-3
12-01-1988,23:00,6,R,ugm-3,27,R,ugm-3,36,R,ugm-3
12-01-1988,24:00,8,R,ugm-3,17,R,ugm-3,29,R,ugm-3
13-01-1988,01:00,4,R,ugm-3,19,R,ugm-3,25,R,ugm-3
13-01-1988,02:00,5,R,ugm-3,15,R,ugm-3,23,R,ugm-3
13-01-1988,03:00,8,R,ugm-3,17,R,ugm-3,29,R,ugm-3
13-01-1988,04:00,16,R,ugm-3,31,R,ugm-3,55,R,ugm-3
13-01-1988,05:00,11,R,ugm-3,36,R,ugm-3,53,R,ugm-3
13-01-1988,06:00,16,R,ugm-3,46,R,ugm-3,71,R,ugm-3
13-01-1988,07:00,31,R,ugm-3,57,R,ugm-3,105,R,ugm-3
13-01-1988,08:00,53,R,ugm-3,65,R,ugm-3,145,R,ugm-3
13-01-1988,09:00,106,R,ugm-3,69,R,ugm-3,231,R,ugm-3
13-01-1988,10:00,113,R,ugm-3,67,R,ugm-3,239,R,ugm-3
13-01-1988,11:00,90,R,ugm-3,65,R,ugm-3,202,R,ugm-3
13-01-1988,12:00,83,R,ugm-3,65,R,ugm-3,191,R,ugm-3
13-01-1988,13:00,81,R,ugm-3,69,R,ugm-3,193,R,ugm-3
13-01-1988,14:00,79,R,ugm-3,73,R,ugm-3,193,R,ugm-3
13-01-1988,15:00,54,R,ugm-3,71,R,ugm-3,153,R,ugm-3
13-01-1988,16:00,103,R,ugm-3,73,R,ugm-3,229,R,ugm-3
13-01-1988,17:00,185,R,ugm-3,67,R,ugm-3,350,R,ugm-3
13-01-1988,18:00,205,R,ugm-3,67,R,ugm-3,380,R,ugm-3
13-01-1988,19:00,138,R,ugm-3,59,R,ugm-3,269,R,ugm-3
13-01-1988,20:00,86,R,ugm-3,69,R,ugm-3,201,R,ugm-3
13-01-1988,21:00,84,R,ugm-3,71,R,ugm-3,199,R,ugm-3
13-01-1988,22:00,105,R,ugm-3,63,R,ugm-3,223,R,ugm-3
13-01-1988,23:00,85,R,ugm-3,57,R,ugm-3,187,R,ugm-3
13-01-1988,24:00,59,R,ugm-3,76,R,ugm-3,166,R,ugm-3
14-01-1988,01:00,40,R,ugm-3,69,R,ugm-3,130,R,ugm-3
14-01-1988,02:00,41,R,ugm-3,61,R,ugm-3,124,R,ugm-3
14-01-1988,03:00,20,R,ugm-3,55,R,ugm-3,86,R,ugm-3
14-01-1988,04:00,28,R,ugm-3,52,R,ugm-3,94,R,ugm-3
14-01-1988,05:00,20,R,ugm-3,50,R,ugm-3,80,R,ugm-3
14-01-1988,06:00,24,R,ugm-3,61,R,ugm-3,97,R,ugm-3
14-01-1988,07:00,49,R,ugm-3,65,R,ugm-3,139,R,ugm-3
14-01-1988,08:00,141,R,ugm-3,65,R,ugm-3,281,R,ugm-3
14-01-1988,09:00,149,R,ugm-3,63,R,ugm-3,290,R,ugm-3
14-01-1988,10:00,140,R,ugm-3,67,R,ugm-3,281,R,ugm-3
14-01-1988,11:00,110,R,ugm-3,65,R,ugm-3,233,R,ugm-3
14-01-1988,12:00,108,R,ugm-3,63,R,ugm-3,227,R,ugm-3
14-01-1988,13:00,113,R,ugm-3,63,R,ugm-3,235,R,ugm-3
14-01-1988,14:00,64,R,ugm-3,61,R,ugm-3,159,R,ugm-3
14-01-1988,15:00,105,R,ugm-3,67,R,ugm-3,227,R,ugm-3
14-01-1988,16:00,96,R,ugm-3,71,R,ugm-3,218,R,ugm-3
14-01-1988,17:00,95,R,ugm-3,74,R,ugm-3,220,R,ugm-3
14-01-1988,18:00,93,R,ugm-3,73,R,ugm-3,214,R,ugm-3
14-01-1988,19:00,148,R,ugm-3,69,R,ugm-3,294,R,ugm-3
14-01-1988,20:00,211,R,ugm-3,63,R,ugm-3,386,R,ugm-3
14-01-1988,21:00,181,R,ugm-3,61,R,ugm-3,338,R,ugm-3
14-01-1988,22:00,124,R,ugm-3,65,R,ugm-3,254,R,ugm-3
14-01-1988,23:00,51,R,ugm-3,67,R,ugm-3,145,R,ugm-3
14-01-1988,24:00,33,R,ugm-3,63,R,ugm-3,113,R,ugm-3
15-01-1988,01:00,24,R,ugm-3,52,R,ugm-3,88,R,ugm-3
15-01-1988,02:00,13,R,ugm-3,40,R,ugm-3,59,R,ugm-3
15-01-1988,03:00,16,R,ugm-3,36,R,ugm-3,61,R,ugm-3
15-01-1988,04:00,10,R,ugm-3,38,R,ugm-3,53,R,ugm-3
15-01-1988,05:00,5,R,ugm-3,32,R,ugm-3,40,R,ugm-3
15-01-1988,06:00,10,R,ugm-3,46,R,ugm-3,61,R,ugm-3
15-01-1988,07:00,24,R,ugm-3,50,R,ugm-3,86,R,ugm-3
15-01-1988,08:00,49,R,ugm-3,57,R,ugm-3,132,R,ugm-3
15-01-1988,09:00,58,R,ugm-3,59,R,ugm-3,147,R,ugm-3
15-01-1988,10:00,129,R,ugm-3,53,R,ugm-3,250,R,ugm-3
15-01-1988,11:00,88,R,ugm-3,53,R,ugm-3,187,R,ugm-3
15-01-1988,12:00,95,R,ugm-3,55,R,ugm-3,201,R,ugm-3
15-01-1988,13:00,120,R,ugm-3,55,R,ugm-3,239,R,ugm-3
15-01-1988,14:00,76,R,ugm-3,55,R,ugm-3,172,R,ugm-3
15-01-1988,15:00,49,R,ugm-3,63,R,ugm-3,138,R,ugm-3
15-01-1988,16:00,129,R,ugm-3,61,R,ugm-3,258,R,ugm-3
15-01-1988,17:00,193,R,ugm-3,59,R,ugm-3,353,R,ugm-3
15-01-1988,18:00,146,R,ugm-3,61,R,ugm-3,285,R,ugm-3
15-01-1988,19:00,153,R,ugm-3,57,R,ugm-3,290,R,ugm-3
15-01-1988,20:00,104,R,ugm-3,61,R,ugm-3,220,R,ugm-3
15-01-1988,21:00,86,R,ugm-3,63,R,ugm-3,195,R,ugm-3
15-01-1988,22:00,61,R,ugm-3,61,R,ugm-3,155,R,ugm-3
15-01-1988,23:00,44,R,ugm-3,59,R,ugm-3,126,R,ugm-3
15-01-1988,24:00,34,R,ugm-3,57,R,ugm-3,109,R,ugm-3
16-01-1988,01:00,14,R,ugm-3,48,R,ugm-3,69,R,ugm-3
16-01-1988,02:00,11,R,ugm-3,40,R,ugm-3,57,R,ugm-3
16-01-1988,03:00,21,R,ugm-3,38,R,ugm-3,71,R,ugm-3
16-01-1988,04:00,28,R,ugm-3,50,R,ugm-3,92,R,ugm-3
16-01-1988,05:00,26,R,ugm-3,57,R,ugm-3,97,R,ugm-3
16-01-1988,06:00,23,R,ugm-3,55,R,ugm-3,90,R,ugm-3
16-01-1988,07:00,23,R,ugm-3,48,R,ugm-3,82,R,ugm-3
16-01-1988,08:00,44,R,ugm-3,53,R,ugm-3,120,R,ugm-3
16-01-1988,09:00,144,R,ugm-3,48,R,ugm-3,267,R,ugm-3
16-01-1988,10:00,108,R,ugm-3,46,R,ugm-3,210,R,ugm-3
16-01-1988,11:00,93,R,ugm-3,46,R,ugm-3,187,R,ugm-3
16-01-1988,12:00,116,R,ugm-3,46,R,ugm-3,223,R,ugm-3
16-01-1988,13:00,96,R,ugm-3,48,R,ugm-3,195,R,ugm-3
16-01-1988,14:00,74,R,ugm-3,53,R,ugm-3,166,R,ugm-3
16-01-1988,15:00,76,R,ugm-3,59,R,ugm-3,176,R,ugm-3
16-01-1988,16:00,91,R,ugm-3,55,R,ugm-3,195,R,ugm-3
16-01-1988,17:00,96,R,ugm-3,46,R,ugm-3,193,R,ugm-3
16-01-1988,18:00,94,R,ugm-3,42,R,ugm-3,185,R,ugm-3
16-01-1988,19:00,79,R,ugm-3,40,R,ugm-3,160,R,ugm-3
16-01-1988,20:00,59,R,ugm-3,38,R,ugm-3,128,R,ugm-3
16-01-1988,21:00,36,R,ugm-3,40,R,ugm-3,96,R,ugm-3
16-01-1988,22:00,35,R,ugm-3,42,R,ugm-3,96,R,ugm-3
16-01-1988,23:00,26,R,ugm-3,46,R,ugm-3,86,R,ugm-3
16-01-1988,24:00,21,R,ugm-3,42,R,ugm-3,74,R,ugm-3
17-01-1988,01:00,23,R,ugm-3,40,R,ugm-3,74,R,ugm-3
17-01-1988,02:00,16,R,ugm-3,32,R,ugm-3,57,R,ugm-3
17-01-1988,03:00,10,R,ugm-3,31,R,ugm-3,46,R,ugm-3
17-01-1988,04:00,6,R,ugm-3,25,R,ugm-3,34,R,ugm-3
17-01-1988,05:00,6,R,ugm-3,23,R,ugm-3,32,R,ugm-3
17-01-1988,06:00,6,R,ugm-3,21,R,ugm-3,31,R,ugm-3
17-01-1988,07:00,9,R,ugm-3,25,R,ugm-3,38,R,ugm-3
17-01-1988,08:00,20,R,ugm-3,34,R,ugm-3,65,R,ugm-3
17-01-1988,09:00,44,R,ugm-3,44,R,ugm-3,111,R,ugm-3
17-01-1988,10:00,65,R,ugm-3,46,R,ugm-3,145,R,ugm-3
17-01-1988,11:00,63,R,ugm-3,48,R,ugm-3,143,R,ugm-3
17-01-1988,12:00,65,R,ugm-3,42,R,ugm-3,141,R,ugm-3
17-01-1988,13:00,66,R,ugm-3,46,R,ugm-3,147,R,ugm-3
17-01-1988,14:00,64,R,ugm-3,46,R,ugm-3,143,R,ugm-3
17-01-1988,15:00,58,R,ugm-3,46,R,ugm-3,134,R,ugm-3
17-01-1988,16:00,61,R,ugm-3,50,R,ugm-3,143,R,ugm-3
17-01-1988,17:00,48,R,ugm-3,52,R,ugm-3,124,R,ugm-3
17-01-1988,18:00,63,R,ugm-3,52,R,ugm-3,147,R,ugm-3
17-01-1988,19:00,79,R,ugm-3,50,R,ugm-3,170,R,ugm-3
17-01-1988,20:00,66,R,ugm-3,50,R,ugm-3,151,R,ugm-3
17-01-1988,21:00,59,R,ugm-3,50,R,ugm-3,139,R,ugm-3
17-01-1988,22:00,43,R,ugm-3,50,R,ugm-3,115,R,ugm-3
17-01-1988,23:00,51,R,ugm-3,44,R,ugm-3,122,R,ugm-3
17-01-1988,24:00,40,R,ugm-3,42,R,ugm-3,103,R,ugm-3
18-01-1988,01:00,65,R,ugm-3,44,R,ugm-3,143,R,ugm-3
18-01-1988,02:00,61,R,ugm-3,40,R,ugm-3,134,R,ugm-3
18-01-1988,03:00,60,R,ugm-3,42,R,ugm-3,134,R,ugm-3
18-01-1988,04:00,54,R,ugm-3,40,R,ugm-3,122,R,ugm-3
18-01-1988,05:00,60,R,ugm-3,42,R,ugm-3,134,R,ugm-3
18-01-1988,06:00,65,R,ugm-3,38,R,ugm-3,138,R,ugm-3
18-01-1988,07:00,64,R,ugm-3,44,R,ugm-3,141,R,ugm-3
18-01-1988,08:00,111,R,ugm-3,48,R,ugm-3,218,R,ugm-3
18-01-1988,09:00,185,R,ugm-3,50,R,ugm-3,332,R,ugm-3
18-01-1988,10:00,173,R,ugm-3,61,R,ugm-3,325,R,ugm-3
18-01-1988,11:00,158,R,ugm-3,63,R,ugm-3,304,R,ugm-3
18-01-1988,12:00,141,R,ugm-3,65,R,ugm-3,281,R,ugm-3
18-01-1988,13:00,108,R,ugm-3,69,R,ugm-3,233,R,ugm-3
18-01-1988,14:00,78,R,ugm-3,80,R,ugm-3,199,R,ugm-3
18-01-1988,15:00,134,R,ugm-3,67,R,ugm-3,271,R,ugm-3
18-01-1988,16:00,81,R,ugm-3,55,R,ugm-3,180,R,ugm-3
18-01-1988,17:00,34,R,ugm-3,55,R,ugm-3,107,R,ugm-3
18-01-1988,18:00,24,R,ugm-3,57,R,ugm-3,94,R,ugm-3
18-01-1988,19:00,19,R,ugm-3,55,R,ugm-3,84,R,ugm-3
18-01-1988,20:00,15,R,ugm-3,57,R,ugm-3,80,R,ugm-3
18-01-1988,21:00,15,R,ugm-3,59,R,ugm-3,82,R,ugm-3
18-01-1988,22:00,13,R,ugm-3,50,R,ugm-3,69,R,ugm-3
18-01-1988,23:00,10,R,ugm-3,40,R,ugm-3,55,R,ugm-3
18-01-1988,24:00,8,R,ugm-3,29,R,ugm-3,40,R,ugm-3
19-01-1988,01:00,4,R,ugm-3,27,R,ugm-3,32,R,ugm-3
19-01-1988,02:00,3,R,ugm-3,32,R,ugm-3,36,R,ugm-3
19-01-1988,03:00,4,R,ugm-3,27,R,ugm-3,32,R,ugm-3
19-01-1988,04:00,3,R,ugm-3,23,R,ugm-3,27,R,ugm-3
19-01-1988,05:00,3,R,ugm-3,21,R,ugm-3,25,R,ugm-3
19-01-1988,06:00,4,R,ugm-3,23,R,ugm-3,29,R,ugm-3
19-01-1988,07:00,9,R,ugm-3,27,R,ugm-3,40,R,ugm-3
19-01-1988,08:00,15,R,ugm-3,34,R,ugm-3,57,R,ugm-3
19-01-1988,09:00,25,R,ugm-3,50,R,ugm-3,88,R,ugm-3
19-01-1988,10:00,19,R,ugm-3,44,R,ugm-3,73,R,ugm-3
19-01-1988,11:00,19,R,ugm-3,42,R,ugm-3,71,R,ugm-3
19-01-1988,12:00,35,R,ugm-3,48,R,ugm-3,101,R,ugm-3
19-01-1988,13:00,63,R,ugm-3,57,R,ugm-3,153,R,ugm-3
19-01-1988,14:00,80,R,ugm-3,61,R,ugm-3,183,R,ugm-3
19-01-1988,15:00,86,R,ugm-3,59,R,ugm-3,191,R,ugm-3
19-01-1988,16:00,84,R,ugm-3,61,R,ugm-3,189,R,ugm-3
19-01-1988,17:00,99,R,ugm-3,65,R,ugm-3,216,R,ugm-3
19-01-1988,18:00,123,R,ugm-3,76,R,ugm-3,264,R,ugm-3
19-01-1988,19:00,95,R,ugm-3,69,R,ugm-3,214,R,ugm-3
19-01-1988,20:00,69,R,ugm-3,63,R,ugm-3,168,R,ugm-3
19-01-1988,21:00,43,R,ugm-3,59,R,ugm-3,124,R,ugm-3
19-01-1988,22:00,61,R,ugm-3,63,R,ugm-3,157,R,ugm-3
19-01-1988,23:00,38,R,ugm-3,61,R,ugm-3,118,R,ugm-3
19-01-1988,24:00,19,R,ugm-3,57,R,ugm-3,86,R,ugm-3
20-01-1988,01:00,11,R,ugm-3,53,R,ugm-3,71,R,ugm-3
20-01-1988,02:00,11,R,ugm-3,48,R,ugm-3,65,R,ugm-3
20-01-1988,03:00,9,R,ugm-3,40,R,ugm-3,53,R,ugm-3
20-01-1988,04:00,4,R,ugm-3,36,R,ugm-3,42,R,ugm-3
20-01-1988,05:00,6,R,ugm-3,44,R,ugm-3,53,R,ugm-3
20-01-1988,06:00,9,R,ugm-3,46,R,ugm-3,59,R,ugm-3
20-01-1988,07:00,13,R,ugm-3,59,R,ugm-3,78,R,ugm-3
20-01-1988,08:00,43,R,ugm-3,71,R,ugm-3,136,R,ugm-3
20-01-1988,09:00,41,R,ugm-3,71,R,ugm-3,134,R,ugm-3
20-01-1988,10:00,75,R,ugm-3,67,R,ugm-3,181,R,ugm-3
20-01-1988,11:00,59,R,ugm-3,65,R,ugm-3,155,R,ugm-3
20-01-1988,12:00,68,R,ugm-3,61,R,ugm-3,164,R,ugm-3
20-01-1988,13:00,83,R,ugm-3,59,R,ugm-3,185,R,ugm-3
20-01-1988,14:00,88,R,ugm-3,50,R,ugm-3,183,R,ugm-3